tititudorancea.com
Station Historical Data
Daily Summary for July 23, 2018 Units:  Metric    English   Both
« Previous Day
Next Day »
Daily Weekly Monthly Yearly Custom
  High: Low: Average:
Temperature: -17.8 °C 6.6 °C 9 °C
Dew Point: -17.8 °C 0.1 °C 2.4 °C
Humidity: Humidity % 43 % 66 %
Wind Speed: 0 km/h 13 km/h 29 km/h
Wind Gust: 0 km/h - -
Wind:- - ESE
Pressure: 0 hPa 1001.9 hPa -
Precipitation: 9.14 mm    
Historical Graphs
 
 
Ararat weather Find more about Weather in Ararat, AU


 



 


Tabular Data for July 23, 2018
Time Temperature Dew Point Pressure Wind Wind Speed Wind Gust Humidity Rainfall Rate (Hourly)
-17.8 °C -17.8 °C 0 hPa Calm     Humidity % 0 mm
00:04 8.5 °C 1.6 °C 1013.8 hPa NNE 38.9 km/h 19.8 km/h 62 % 0 mm
00:09 8.6 °C 1.5 °C 1013.8 hPa NNW 29.6 km/h 22 km/h 61 % 0 mm
00:14 8.7 °C 1.4 °C 1013.8 hPa NNE 25.9 km/h 25.1 km/h 60 % 0 mm
00:19 8.9 °C 1.3 °C 1013.8 hPa North 33.3 km/h 19.3 km/h 59 % 0 mm
00:24 9 °C 1.2 °C 1013.8 hPa North 37 km/h 24.9 km/h 58 % 0 mm
00:29 9.1 °C 1.2 °C 1013.8 hPa North 31.5 km/h 24.5 km/h 58 % 0 mm
00:34 9 °C 1.2 °C 1013.8 hPa North 35.2 km/h 23.7 km/h 58 % 0 mm
00:39 8.9 °C 1.3 °C 1013.8 hPa NNE 31.5 km/h 25.6 km/h 59 % 0 mm
00:44 8.8 °C 1.2 °C 1013.8 hPa NNE 22.5 km/h 22.7 km/h 59 % 0 mm
00:49 8.7 °C 1.3 °C 1013.8 hPa NNE 33.8 km/h 21.2 km/h 60 % 0 mm
00:54 8.6 °C 1.3 °C 1013.8 hPa NNE 31.5 km/h 15.6 km/h 60 % 0 mm
00:59 8.6 °C 1.2 °C 1013.8 hPa North 31.5 km/h 20.6 km/h 60 % 0 mm
01:04 8.7 °C 1.3 °C 1013.4 hPa NNE 24.1 km/h 24.6 km/h 60 % 0 mm
01:09 8.7 °C 1.4 °C 1013.4 hPa NNE 35.2 km/h 20 km/h 60 % 0 mm
01:14 8.7 °C 1.3 °C 1013.4 hPa NNE 25.9 km/h 21.2 km/h 60 % 0 mm
01:19 8.7 °C 1.2 °C 1013.4 hPa NNE 29.6 km/h 25.6 km/h 59 % 0 mm
01:24 8.8 °C 1.2 °C 1013.4 hPa NNE 37 km/h 21.9 km/h 59 % 0 mm
01:29 8.7 °C 1.2 °C 1013.4 hPa NNE 33.8 km/h 22.7 km/h 59 % 0 mm
01:34 8.7 °C 1.1 °C 1013.4 hPa NNE 35.2 km/h 20.1 km/h 59 % 0 mm
01:39 8.6 °C 1.1 °C 1013.4 hPa North 31.5 km/h 22.4 km/h 59 % 0 mm
01:44 8.6 °C 1.1 °C 1013.4 hPa NNE 31.5 km/h 18 km/h 59 % 0 mm
01:49 8.7 °C 1.1 °C 1013.4 hPa North 25.9 km/h 20.1 km/h 59 % 0 mm
01:54 8.7 °C 0.9 °C 1013.4 hPa North 37 km/h 20.1 km/h 58 % 0 mm
01:59 8.7 °C 0.9 °C 1013.4 hPa NNE 20.4 km/h 18 km/h 58 % 0 mm
02:04 8.7 °C 1.1 °C 1013.4 hPa North 22.2 km/h 19.5 km/h 59 % 0 mm
02:09 8.6 °C 1.1 °C 1013.4 hPa North 27.8 km/h 22.9 km/h 59 % 0 mm
02:14 8.6 °C 1 °C 1013.4 hPa NE 30.6 km/h 14.5 km/h 59 % 0 mm
02:19 8.6 °C 1 °C 1013.4 hPa NNE 22.2 km/h 15.6 km/h 59 % 0 mm
02:24 8.6 °C 0.8 °C 1013.4 hPa North 27.8 km/h 17.1 km/h 58 % 0 mm
02:29 8.6 °C 1 °C 1013.4 hPa NNE 29.6 km/h 15 km/h 59 % 0 mm
02:34 8.4 °C 0.9 °C 1013.1 hPa NNE 16.7 km/h 10.6 km/h 59 % 0 mm
02:39 8.4 °C 0.8 °C 1013.1 hPa NNE 18.5 km/h 13.4 km/h 59 % 0 mm
02:44 8.3 °C 0.9 °C 1013.1 hPa NNE 13 km/h 11.6 km/h 60 % 0 mm
02:49 8.3 °C 0.9 °C 1013.4 hPa NNE 25.9 km/h 10.6 km/h 60 % 0 mm
02:54 8.3 °C 0.8 °C 1013.4 hPa NNE 24.1 km/h 18.7 km/h 59 % 0 mm
02:59 8.3 °C 0.8 °C 1013.4 hPa NE 22.2 km/h 9.3 km/h 59 % 0 mm
03:04 8.4 °C 0.7 °C 1013.4 hPa NNE 18.5 km/h 14.3 km/h 58 % 0 mm
03:09 8.6 °C 0.8 °C 1013.1 hPa NNE 22.2 km/h 15.4 km/h 58 % 0 mm
03:14 8.6 °C 0.6 °C 1012.8 hPa NNE 27.8 km/h 18.7 km/h 57 % 0 mm
03:19 8.7 °C 0.6 °C 1012.8 hPa NNE 18.5 km/h 13.8 km/h 57 % 0 mm
03:24 8.6 °C 0.6 °C 1012.8 hPa NNE 25.9 km/h 13 km/h 57 % 0 mm
03:29 8.7 °C 0.6 °C 1012.8 hPa NNE 33.3 km/h 19.2 km/h 57 % 0 mm
03:34 8.7 °C 0.4 °C 1012.8 hPa North 24.1 km/h 21.7 km/h 56 % 0 mm
03:39 8.7 °C 0.4 °C 1012.8 hPa NNE 25.9 km/h 23 km/h 56 % 0 mm
03:44 8.7 °C 0.6 °C 1012.8 hPa North 24.1 km/h 11.9 km/h 57 % 0 mm
03:49 8.6 °C 0.6 °C 1012.8 hPa North 29.6 km/h 15.4 km/h 57 % 0 mm
03:54 8.6 °C 0.5 °C 1012.4 hPa NNE 24.1 km/h 20.3 km/h 57 % 0 mm
03:59 8.6 °C 0.5 °C 1012.4 hPa NNE 16.1 km/h 12.1 km/h 57 % 0 mm
04:04 8.6 °C 0.3 °C 1012.4 hPa NNE 25.9 km/h 11.9 km/h 56 % 0 mm
04:09 8.7 °C 0.1 °C 1012.1 hPa NE 18.5 km/h 17.5 km/h 55 % 0 mm
04:14 8.7 °C 0.2 °C 1012.4 hPa NNE 22.2 km/h 15.9 km/h 55 % 0 mm
04:19 8.8 °C 0.2 °C 1012.4 hPa North 25.9 km/h 19.6 km/h 55 % 0 mm
04:24 8.8 °C 0.2 °C 1012.1 hPa NNE 22.2 km/h 14 km/h 55 % 0 mm
04:29 8.8 °C 0.2 °C 1012.1 hPa NNE 20.4 km/h 14.8 km/h 55 % 0 mm
04:34 8.7 °C 0.4 °C 1011.7 hPa NNE 25.9 km/h 13.2 km/h 56 % 0 mm
04:39 8.6 °C 0.6 °C 1011.7 hPa NNE 16.7 km/h 8.4 km/h 57 % 0 mm
04:44 8.6 °C 0.3 °C 1012.1 hPa NNE 25.9 km/h 15.4 km/h 56 % 0 mm
04:49 8.6 °C 0.5 °C 1012.1 hPa NNE 22.2 km/h 14.3 km/h 57 % 0 mm
04:54 8.6 °C 0.3 °C 1011.7 hPa NNE 25.9 km/h 17.9 km/h 56 % 0 mm
04:59 8.6 °C 0.3 °C 1011.7 hPa NNE 27.8 km/h 18.8 km/h 56 % 0 mm
05:04 8.6 °C 0.3 °C 1011.4 hPa NNE 27.8 km/h 20.8 km/h 56 % 0 mm
05:09 8.6 °C 0.3 °C 1011.4 hPa NNE 18.5 km/h 16.3 km/h 56 % 0 mm
05:14 8.6 °C 0.3 °C 1011.4 hPa NNE 27.8 km/h 20.4 km/h 56 % 0 mm
05:19 8.5 °C 0.2 °C 1011.1 hPa NNE 31.5 km/h 26.1 km/h 56 % 0 mm
05:24 8.4 °C 0.4 °C 1011.1 hPa NNE 20.9 km/h 16.4 km/h 57 % 0 mm
05:29 8.4 °C 0.3 °C 1011.1 hPa NNE 27.8 km/h 18 km/h 57 % 0 mm
05:34 8.3 °C 0.6 °C 1011.1 hPa NNE 29 km/h 21.7 km/h 58 % 0 mm
05:39 8.3 °C 0.5 °C 1010.7 hPa NNE 20.4 km/h 13.5 km/h 58 % 0 mm
05:44 8.2 °C 0.7 °C 1010.4 hPa NNE 22.2 km/h 11.3 km/h 59 % 0 mm
05:49 8.2 °C 0.6 °C 1010.4 hPa North 22.2 km/h 15.1 km/h 59 % 0 mm
05:54 8.2 °C 0.6 °C 1010.7 hPa NNE 22.5 km/h 19.2 km/h 59 % 0 mm
05:59 8.2 °C 0.7 °C 1011.1 hPa NNE 22.5 km/h 20.3 km/h 59 % 0 mm
06:04 8.3 °C 1.2 °C 1011.1 hPa NNE 29.6 km/h 14.6 km/h 61 % 0 mm
06:09 8.3 °C 0.5 °C 1010.7 hPa North 24.1 km/h 16.4 km/h 58 % 0 mm
06:14 8.2 °C 0.7 °C 1011.1 hPa North 18.5 km/h 17.2 km/h 59 % 0 mm
06:19 8.1 °C 0.6 °C 1010.7 hPa North 29.6 km/h 16.3 km/h 59 % 0 mm
06:24 8.1 °C 0.6 °C 1010.7 hPa NNE 25.9 km/h 16.9 km/h 59 % 0 mm
06:29 8.1 °C 0.8 °C 1011.1 hPa NNE 27.8 km/h 13.4 km/h 60 % 0 mm
06:34 8.1 °C 0.8 °C 1010.7 hPa North 22.2 km/h 8.5 km/h 60 % 0 mm
06:39 8 °C 0.7 °C 1010.7 hPa NNE 18.5 km/h 7.6 km/h 60 % 0 mm
06:44 8 °C 0.9 °C 1010.7 hPa NE 24.1 km/h 12.2 km/h 61 % 0 mm
06:49 7.9 °C 0.9 °C 1010.7 hPa NNE 18.5 km/h 10.6 km/h 61 % 0 mm
06:54 7.9 °C 0.9 °C 1010.7 hPa NNE 22.2 km/h 15.8 km/h 61 % 0 mm
06:59 7.9 °C 0.8 °C 1010.4 hPa NNE 25.7 km/h 18.8 km/h 61 % 0 mm
07:04 7.9 °C 0.8 °C 1010.4 hPa NNE 18.5 km/h 16.6 km/h 61 % 0 mm
07:09 7.9 °C 0.8 °C 1010.4 hPa North 22.5 km/h 18.7 km/h 61 % 0 mm
07:14 7.8 °C 0.8 °C 1010 hPa NNE 20.4 km/h 11.9 km/h 61 % 0 mm
07:19 7.8 °C 0.7 °C 1009.7 hPa NE 31.5 km/h 23.8 km/h 61 % 0 mm
07:24 7.8 °C 0.7 °C 1009.7 hPa NNE 31.5 km/h 22.4 km/h 61 % 0 mm
07:29 7.8 °C 0.7 °C 1009.7 hPa NNE 32.2 km/h 22 km/h 61 % 0 mm
07:34 7.8 °C 0.9 °C 1009.7 hPa North 25.9 km/h 19.3 km/h 62 % 0 mm
07:39 7.8 °C 0.7 °C 1009.7 hPa NNE 35.2 km/h 22.2 km/h 61 % 0 mm
07:44 7.8 °C 0.7 °C 1009.7 hPa NNE 27.8 km/h 25.7 km/h 61 % 0 mm
07:49 7.8 °C 0.8 °C 1009.7 hPa NNE 33.3 km/h 24.9 km/h 61 % 0 mm
07:54 7.8 °C 0.8 °C 1009.7 hPa North 30.6 km/h 19.2 km/h 61 % 0 mm
07:59 7.8 °C 0.8 °C 1010 hPa NNE 33.3 km/h 19.2 km/h 61 % 0 mm
08:04 7.8 °C 0.6 °C 1010 hPa NNE 33.3 km/h 28.5 km/h 60 % 0 mm
08:09 7.9 °C 0.8 °C 1010.4 hPa NNE 29.6 km/h 24.1 km/h 61 % 0 mm
08:14 7.8 °C 0.8 °C 1010 hPa North 25.9 km/h 20.1 km/h 61 % 0 mm
08:19 7.9 °C 0.8 °C 1010.4 hPa NNE 19.3 km/h 15.8 km/h 61 % 0 mm
08:24 7.9 °C 0.6 °C 1010 hPa NNE 31.5 km/h 22.2 km/h 60 % 0 mm
08:29 7.9 °C 0.6 °C 1010.4 hPa North 22.2 km/h 18.3 km/h 60 % 0 mm
08:34 7.8 °C 0.6 °C 1010.4 hPa North 20.9 km/h 12.4 km/h 60 % 0 mm
08:39 7.8 °C 0.5 °C 1010 hPa NNE 27.8 km/h 19.6 km/h 60 % 0 mm
08:44 7.8 °C 0.5 °C 1010 hPa NNE 29.6 km/h 29.6 km/h 60 % 0 mm
08:49 7.7 °C 0.6 °C 1010 hPa North 18.5 km/h 18.3 km/h 61 % 0 mm
08:54 7.7 °C 0.6 °C 1010 hPa NNE 31.5 km/h 19.6 km/h 61 % 0 mm
08:59 7.8 °C 0.8 °C 1009.7 hPa North 18.5 km/h 10.1 km/h 61 % 0 mm
09:04 8.1 °C 0.8 °C 1009.7 hPa North 27.8 km/h 16.4 km/h 60 % 0 mm
09:09 8.3 °C 0.7 °C 1009.7 hPa North 25.9 km/h 18.5 km/h 59 % 0 mm
09:14 8.4 °C 0.9 °C 1009.7 hPa North 22.5 km/h 17.7 km/h 59 % 0 mm
09:19 8.6 °C 0.8 °C 1009.7 hPa NNE 29.6 km/h 20.3 km/h 58 % 0 mm
09:24 8.8 °C 0.7 °C 1009.7 hPa NNE 29.6 km/h 15.3 km/h 57 % 0 mm
09:29 9.1 °C 1 °C 1009.4 hPa NNE 20.4 km/h 12.6 km/h 57 % 0 mm
09:34 9.3 °C 0.9 °C 1009.4 hPa North 18.5 km/h 13.7 km/h 56 % 0 mm
09:39 9.4 °C 0.8 °C 1009 hPa North 30.6 km/h 23 km/h 55 % 0 mm
09:44 9.7 °C 0.8 °C 1009.4 hPa North 35.2 km/h 17.2 km/h 54 % 0 mm
09:49 9.9 °C 1.1 °C 1009 hPa North 22.2 km/h 11.3 km/h 54 % 0 mm
09:54 10.1 °C 0.9 °C 1009 hPa North 22.2 km/h 16.3 km/h 53 % 0 mm
09:59 10 °C 0.8 °C 1009 hPa NNE 35.2 km/h 20 km/h 53 % 0 mm
10:04 9.9 °C 1.1 °C 1009 hPa NNE 31.5 km/h 13.2 km/h 54 % 0 mm
10:09 10.2 °C 1.1 °C 1009 hPa North 27.8 km/h 13.8 km/h 53 % 0 mm
10:14 10.3 °C 0.9 °C 1008.7 hPa NNE 35.2 km/h 20.1 km/h 52 % 0 mm
10:19 10.2 °C 1.1 °C 1008.7 hPa NNE 33.3 km/h 13.8 km/h 53 % 0 mm
10:24 10.3 °C 1.1 °C 1008.7 hPa NNE 20.9 km/h 19.3 km/h 53 % 0 mm
10:29 10.4 °C 1.2 °C 1008.7 hPa NNE 29.6 km/h 19.8 km/h 53 % 0 mm
10:34 10.6 °C 1.1 °C 1008.4 hPa NNW 20.4 km/h 15 km/h 52 % 0 mm
10:39 10.8 °C 1.3 °C 1008.4 hPa North 16.7 km/h 15.9 km/h 52 % 0 mm
10:44 11.1 °C 1.3 °C 1008.4 hPa NNW 33.3 km/h 20 km/h 51 % 0 mm
10:49 11.5 °C 1.7 °C 1008 hPa NNW 31.5 km/h 14.6 km/h 51 % 0 mm
10:54 11.7 °C 1.6 °C 1008 hPa NNE 31.5 km/h 20.8 km/h 50 % 0 mm
10:59 11.8 °C 1.7 °C 1007.7 hPa North 33.3 km/h 17.1 km/h 50 % 0 mm
11:04 12 °C 0.7 °C 1007.3 hPa North 53.8 km/h 25.7 km/h 46 % 0 mm
11:09 12.3 °C 1.1 °C 1007.3 hPa North 37 km/h 22.4 km/h 46 % 0 mm
11:14 12.5 °C 0.6 °C 1007.3 hPa North 42.6 km/h 26.9 km/h 44 % 0 mm
11:19 12.6 °C 1.2 °C 1007 hPa North 35.2 km/h 19.3 km/h 46 % 0 mm
11:24 12.7 °C 1.1 °C 1007 hPa North 44.4 km/h 36.7 km/h 45 % 0 mm
11:29 12.3 °C 0.7 °C 1007 hPa North 53.8 km/h 30.9 km/h 45 % 0 mm
11:34 12.1 °C 1.1 °C 1006.7 hPa NNE 46.3 km/h 27.8 km/h 47 % 0 mm
11:39 11.7 °C 0.8 °C 1006.7 hPa NNE 42.6 km/h 29.1 km/h 47 % 0 mm
11:44 11.7 °C 1 °C 1006.7 hPa North 37 km/h 20.8 km/h 48 % 0 mm
11:49 11.8 °C 1.2 °C 1006.3 hPa NNE 45.1 km/h 33.5 km/h 48 % 0 mm
11:54 12.1 °C 1.1 °C 1006 hPa ENE 46.7 km/h 29.1 km/h 47 % 0 mm
11:59 12.4 °C 0.8 °C 1005.6 hPa North 50 km/h 29.1 km/h 45 % 0 mm
12:04 12.5 °C 1.2 °C 1005.6 hPa NNE 37 km/h 22.7 km/h 46 % 0 mm
12:09 12.6 °C 0.9 °C 1006 hPa NNE 50 km/h 28.2 km/h 45 % 0 mm
12:14 12.7 °C 1 °C 1005.6 hPa NE 37 km/h 23.2 km/h 45 % 0 mm
12:19 12.8 °C 0.9 °C 1005.6 hPa NE 42.6 km/h 28.8 km/h 44 % 0 mm
12:24 12.8 °C 0.8 °C 1005.3 hPa North 46.3 km/h 37.8 km/h 44 % 0 mm
12:29 12.7 °C 0.7 °C 1004.6 hPa NE 40.2 km/h 31.7 km/h 44 % 0 mm
12:34 12.9 °C 0.9 °C 1005 hPa North 37 km/h 28 km/h 44 % 0 mm
12:39 13 °C 1.3 °C 1005 hPa North 35.2 km/h 10.9 km/h 45 % 0 mm
12:44 13.2 °C 1.6 °C 1004.6 hPa NNE 27.8 km/h 18.5 km/h 45 % 0 mm
12:49 13.1 °C 1.1 °C 1004.6 hPa ENE 33.3 km/h 21.2 km/h 44 % 0 mm
12:54 13.2 °C 1.2 °C 1004.6 hPa NNE 35.2 km/h 32 km/h 44 % 0 mm
12:59 13.1 °C 1.1 °C 1004.3 hPa NNE 46.3 km/h 31.9 km/h 44 % 0 mm
13:04 13.2 °C 1.2 °C 1004.6 hPa NNE 40.7 km/h 21.6 km/h 44 % 0 mm
13:09 13.2 °C 1.2 °C 1003.6 hPa NNE 42.6 km/h 22.2 km/h 44 % 0 mm
13:14 13.3 °C 1.3 °C 1003.6 hPa NNE 42.6 km/h 34 km/h 44 % 0 mm
13:19 13.2 °C 1.2 °C 1003.6 hPa NNE 37 km/h 30.6 km/h 44 % 0 mm
13:24 13.4 °C 1.4 °C 1003.6 hPa North 38.9 km/h 24.3 km/h 44 % 0 mm
13:29 13.6 °C 1.3 °C 1003.9 hPa NNE 38.6 km/h 31.9 km/h 43 % 0 mm
13:34 13.6 °C 1.6 °C 1003.9 hPa North 31.5 km/h 15.8 km/h 44 % 0 mm
13:39 13.6 °C 1.5 °C 1003.6 hPa NNE 38.9 km/h 23.7 km/h 44 % 0 mm
13:44 13.6 °C 1.3 °C 1003.6 hPa NNW 29 km/h 31.5 km/h 43 % 0 mm
13:49 13.4 °C 1.1 °C 1003.6 hPa North 59.2 km/h 39.3 km/h 43 % 0 mm
13:54 13.4 °C 1.4 °C 1003.3 hPa North 42.6 km/h 27.8 km/h 44 % 0 mm
13:59 13.4 °C 1.7 °C 1003.3 hPa NNE 35.2 km/h 17.4 km/h 45 % 0 mm
14:04 13.3 °C 1.3 °C 1002.9 hPa NNE 42.6 km/h 30.9 km/h 44 % 0 mm
14:09 13.4 °C 2 °C 1002.9 hPa NNE 27.8 km/h 18.8 km/h 46 % 0 mm
14:14 13.4 °C 1.4 °C 1002.6 hPa North 50 km/h 26.6 km/h 44 % 0 mm
14:19 13.5 °C 1.4 °C 1002.6 hPa NNE 37 km/h 24.3 km/h 44 % 0 mm
14:24 13.5 °C 1.4 °C 1002.6 hPa NNE 42.6 km/h 26.9 km/h 44 % 0 mm
14:29 13.3 °C 1.3 °C 1002.3 hPa North 42.6 km/h 26.9 km/h 44 % 0 mm
14:34 13.3 °C 1.6 °C 1001.9 hPa NNE 32.2 km/h 24.5 km/h 45 % 0 mm
14:39 13.4 °C 1.4 °C 1001.9 hPa North 42.6 km/h 27.8 km/h 44 % 0 mm
14:44 13.2 °C 1.2 °C 1001.9 hPa North 46.3 km/h 31.1 km/h 44 % 0 mm
14:49 13 °C 1.3 °C 1001.9 hPa NNE 42.6 km/h 23.8 km/h 45 % 0 mm
14:54 12.9 °C 1.2 °C 1001.9 hPa North 35.2 km/h 23.3 km/h 45 % 0 mm
14:59 12.9 °C 1.3 °C 1001.9 hPa North 42.6 km/h 28.3 km/h 45 % 0 mm
15:04 12.9 °C 1.2 °C 1002.3 hPa North 35.2 km/h 17.4 km/h 45 % 0 mm
15:09 12.8 °C 1.4 °C 1002.6 hPa North 38.9 km/h 28.8 km/h 46 % 0 mm
15:14 12.7 °C 1.4 °C 1002.6 hPa North 42.6 km/h 23.7 km/h 46 % 0 mm
15:19 12.7 °C 1.4 °C 1002.6 hPa North 25.9 km/h 24.6 km/h 46 % 0 mm
15:24 12.7 °C 1.3 °C 1001.9 hPa NNE 44.4 km/h 33.5 km/h 46 % 0 mm
15:29 12.4 °C 2.5 °C 1001.9 hPa North 29.6 km/h 28.2 km/h 51 % 0 mm
15:34 11.8 °C 3.1 °C 1001.9 hPa North 42.6 km/h 24.8 km/h 55 % 0 mm
15:39 11.4 °C 2.9 °C 1002.3 hPa NNW 46.3 km/h 25.7 km/h 56 % 0 mm
15:44 11.2 °C 3 °C 1002.3 hPa North 27.4 km/h 18.2 km/h 57 % 0 mm
15:49 11.1 °C 3.2 °C 1002.3 hPa North 31.5 km/h 21.7 km/h 58 % 0 mm
15:54 10.9 °C 3.2 °C 1002.3 hPa North 29.6 km/h 17.2 km/h 59 % 0 mm
15:59 10.7 °C 3.4 °C 1002.3 hPa North 31.5 km/h 20.3 km/h 61 % 0 mm
16:04 10.4 °C 3.4 °C 1002.3 hPa NNE 40.7 km/h 26.7 km/h 62 % 0.25 mm
16:09 10.2 °C 3.9 °C 1002.3 hPa NNW 31.5 km/h 12.9 km/h 65 % 0.51 mm
16:14 9.8 °C 4 °C 1002.6 hPa NNE 42.6 km/h 15.9 km/h 67 % 0.51 mm
16:19 9.7 °C 4.1 °C 1002.3 hPa North 42.6 km/h 20.4 km/h 68 % 0.51 mm
16:24 9.6 °C 4 °C 1002.3 hPa North 35.4 km/h 27.8 km/h 68 % 0.51 mm
16:29 9.4 °C 4.2 °C 1002.3 hPa North 33.3 km/h 19.6 km/h 70 % 0.51 mm
16:34 9.2 °C 4.4 °C 1002.6 hPa NNE 38.9 km/h 15.9 km/h 72 % 0.76 mm
16:39 8.9 °C 4.7 °C 1002.6 hPa NNE 20.4 km/h 17.4 km/h 75 % 0.76 mm
16:44 8.7 °C 4.7 °C 1002.6 hPa NNE 42.6 km/h 27 km/h 76 % 1.02 mm
16:49 8.4 °C 4.8 °C 1002.6 hPa NNE 42.6 km/h 20.6 km/h 78 % 1.27 mm
16:54 8.2 °C 5 °C 1002.9 hPa North 27.8 km/h 20.8 km/h 80 % 1.52 mm
16:59 8.1 °C 5 °C 1002.9 hPa North 35.2 km/h 18.2 km/h 81 % 1.52 mm
17:04 7.9 °C 5.1 °C 1002.9 hPa NE 31.5 km/h 18 km/h 82 % 1.52 mm
17:09 7.8 °C 5.2 °C 1002.9 hPa North 31.5 km/h 22.7 km/h 84 % 1.52 mm
17:14 7.6 °C 5.2 °C 1003.3 hPa North 38.9 km/h 25.3 km/h 85 % 1.78 mm
17:19 7.5 °C 5.2 °C 1002.9 hPa North 35.2 km/h 19.2 km/h 85 % 2.03 mm
17:24 7.4 °C 5.2 °C 1003.3 hPa North 33.3 km/h 18.7 km/h 86 % 2.29 mm
17:29 7.3 °C 5.3 °C 1003.3 hPa North 24.1 km/h 18.7 km/h 87 % 2.29 mm
17:34 7.2 °C 5.2 °C 1003.3 hPa North 35.2 km/h 20.9 km/h 87 % 2.03 mm
17:39 7.2 °C 5.3 °C 1003.3 hPa NNE 29.6 km/h 22.2 km/h 88 % 2.29 mm
17:44 7.1 °C 5.3 °C 1003.3 hPa NNE 33.3 km/h 29.3 km/h 88 % 2.29 mm
17:49 7.1 °C 5.2 °C 1003.3 hPa North 31.5 km/h 30.6 km/h 88 % 2.03 mm
17:54 7 °C 5.3 °C 1002.9 hPa North 35.4 km/h 23.3 km/h 89 % 2.29 mm
17:59 6.9 °C 5.3 °C 1002.9 hPa NNE 35.2 km/h 12.7 km/h 89 % 2.29 mm
18:04 6.8 °C 5.2 °C 1002.9 hPa North 33.8 km/h 24.3 km/h 89 % 2.29 mm
18:09 6.7 °C 5.2 °C 1002.9 hPa North 37 km/h 22 km/h 90 % 2.54 mm
18:14 6.7 °C 5.2 °C 1002.9 hPa North 32.2 km/h 23.8 km/h 90 % 2.54 mm
18:19 6.6 °C 5.1 °C 1002.9 hPa NNE 31.5 km/h 23.8 km/h 90 % 2.79 mm
18:24 6.6 °C 5.1 °C 1003.3 hPa NNE 33.3 km/h 15.6 km/h 90 % 3.05 mm
18:29 6.6 °C 5.2 °C 1003.3 hPa North 37 km/h 24.9 km/h 91 % 3.05 mm
18:34 6.6 °C 5.2 °C 1003.3 hPa NNE 22.2 km/h 17.7 km/h 91 % 3.3 mm
18:39 6.6 °C 5.2 °C 1003.9 hPa NNE 27.8 km/h 12.6 km/h 91 % 3.3 mm
18:44 6.6 °C 5.2 °C 1003.3 hPa NNW 20.4 km/h 20.8 km/h 91 % 3.3 mm
18:49 6.6 °C 5.2 °C 1003.6 hPa North 27.8 km/h 23 km/h 91 % 3.3 mm
18:54 6.6 °C 5.2 °C 1003.6 hPa North 22.2 km/h 17.7 km/h 91 % 3.05 mm
18:59 6.6 °C 5.4 °C 1003.6 hPa North 31.5 km/h 19.6 km/h 92 % 3.05 mm
19:04 6.7 °C 5.4 °C 1003.6 hPa North 29.6 km/h 19 km/h 92 % 2.79 mm
19:09 6.8 °C 5.6 °C 1003.3 hPa North 31.5 km/h 21.7 km/h 92 % 2.29 mm
19:14 6.8 °C 5.4 °C 1003.3 hPa North 31.5 km/h 21.4 km/h 91 % 2.03 mm
19:19 6.8 °C 5.4 °C 1003.6 hPa NNE 24.1 km/h 24.3 km/h 91 % 1.52 mm
19:24 6.9 °C 5.5 °C 1003.6 hPa North 29.6 km/h 18.8 km/h 91 % 1.27 mm
19:29 6.9 °C 5.5 °C 1003.6 hPa NNW 31.5 km/h 21.9 km/h 91 % 1.02 mm
19:34 6.9 °C 5.6 °C 1003.6 hPa NNE 20.4 km/h 15 km/h 91 % 0.76 mm
19:39 6.9 °C 5.5 °C 1003.6 hPa NNE 29.6 km/h 12.1 km/h 91 % 0.51 mm
19:44 6.9 °C 5.7 °C 1003.6 hPa North 27.8 km/h 10.9 km/h 92 % 0.51 mm
19:49 6.9 °C 5.7 °C 1003.6 hPa North 33.3 km/h 24.3 km/h 92 % 0.25 mm
19:54 6.9 °C 5.7 °C 1003.6 hPa NE 25.9 km/h 15.8 km/h 92 % 0.25 mm
19:59 7 °C 5.6 °C 1004.3 hPa North 25.7 km/h 20.3 km/h 91 % 0 mm
20:04 7 °C 5.6 °C 1004.3 hPa North 27.4 km/h 16.1 km/h 91 % 0.51 mm
20:09 6.9 °C 5.6 °C 1003.9 hPa North 33.3 km/h 13.8 km/h 91 % 0.76 mm
20:14 6.9 °C 5.7 °C 1003.6 hPa North 27.8 km/h 19.5 km/h 92 % 1.02 mm
20:19 6.9 °C 5.7 °C 1003.6 hPa North 18.5 km/h 12.6 km/h 92 % 1.02 mm
20:24 6.9 °C 5.7 °C 1003.9 hPa North 29.6 km/h 18.3 km/h 92 % 1.02 mm
20:29 6.9 °C 5.7 °C 1003.6 hPa North 16.7 km/h 12.1 km/h 92 % 1.02 mm
20:34 6.9 °C 5.7 °C 1003.9 hPa North 20.4 km/h 11.9 km/h 92 % 1.02 mm
20:39 7 °C 5.8 °C 1003.6 hPa North 20.4 km/h 16.7 km/h 92 % 1.02 mm
20:44 7.1 °C 5.8 °C 1003.6 hPa North 18.5 km/h 12.1 km/h 92 % 1.02 mm
20:49 7.1 °C 5.9 °C 1003.6 hPa NNW 18.5 km/h 13.2 km/h 92 % 1.02 mm
20:54 7.1 °C 5.9 °C 1003.6 hPa NNW 25.9 km/h 14 km/h 92 % 1.02 mm
20:59 7.1 °C 5.9 °C 1003.6 hPa North 20.4 km/h 11.6 km/h 92 % 1.02 mm
21:04 7.1 °C 5.9 °C 1003.6 hPa North 17.7 km/h 11.9 km/h 92 % 0.51 mm
21:09 7.2 °C 5.9 °C 1003.9 hPa North 20.4 km/h 18.5 km/h 92 % 0.25 mm
21:14 7.2 °C 5.9 °C 1004.3 hPa NW 18.5 km/h 16.6 km/h 92 % 0 mm
21:19 7.2 °C 6 °C 1004.6 hPa NNW 18.5 km/h 13.7 km/h 92 % 0.51 mm
21:24 7.2 °C 6 °C 1005 hPa North 20.4 km/h 17.1 km/h 92 % 0.76 mm
21:29 7.2 °C 6 °C 1005 hPa WNW 25.9 km/h 18.2 km/h 92 % 1.52 mm
21:34 7.3 °C 6.1 °C 1004.3 hPa NNW 18.5 km/h 14.2 km/h 92 % 1.52 mm
21:39 7.3 °C 6.1 °C 1004.3 hPa NNW 16.7 km/h 10 km/h 92 % 1.52 mm
21:44 7.3 °C 6.1 °C 1004.3 hPa NNW 19.3 km/h 7.6 km/h 92 % 1.52 mm
21:49 7.4 °C 6.3 °C 1004.3 hPa North 22.2 km/h 13.5 km/h 93 % 1.52 mm
21:54 7.4 °C 6.2 °C 1004.3 hPa North 18.5 km/h 13.4 km/h 92 % 1.52 mm
21:59 7.4 °C 6.2 °C 1004.3 hPa North 18.5 km/h 12.2 km/h 92 % 1.52 mm
22:04 7.4 °C 6.2 °C 1004.3 hPa North 18.5 km/h 9.7 km/h 92 % 1.52 mm
22:09 7.4 °C 6.2 °C 1004.3 hPa North 18.5 km/h 15.6 km/h 92 % 1.52 mm
22:14 7.4 °C 6.2 °C 1004.3 hPa North 18.5 km/h 11.3 km/h 92 % 1.52 mm
22:19 7.4 °C 6.3 °C 1004.3 hPa North 18.5 km/h 13.5 km/h 93 % 1.02 mm
22:24 7.4 °C 6.3 °C 1004.6 hPa NNW 14.8 km/h 10.5 km/h 93 % 0.51 mm
22:29 7.4 °C 6.3 °C 1004.3 hPa North 16.7 km/h 12.2 km/h 93 % 0 mm
22:34 7.4 °C 6.2 °C 1004.3 hPa North 16.7 km/h 10.6 km/h 92 % 0 mm
22:39 7.3 °C 6.3 °C 1004.3 hPa North 18.5 km/h 11.1 km/h 93 % 0 mm
22:44 7.4 °C 6.2 °C 1004.3 hPa North 20.4 km/h 15.8 km/h 92 % 0 mm
22:49 7.4 °C 6.2 °C 1004.3 hPa North 18.5 km/h 12.4 km/h 92 % 0 mm
22:54 7.4 °C 6.2 °C 1004.3 hPa NW 17.7 km/h 10.9 km/h 92 % 0 mm
22:59 7.4 °C 6.2 °C 1004.3 hPa NNW 20.4 km/h 15 km/h 92 % 0 mm
23:04 7.5 °C 6.3 °C 1004.3 hPa North 14.8 km/h 13.7 km/h 92 % 0 mm
23:09 7.5 °C 6.3 °C 1004.3 hPa North 18.5 km/h 10.8 km/h 92 % 0 mm
23:14 7.4 °C 6.2 °C 1004.3 hPa NNW 20.9 km/h 10.3 km/h 92 % 0 mm
23:19 7.4 °C 6.2 °C 1004.3 hPa NW 24.1 km/h 9.3 km/h 92 % 0 mm
23:24 7.4 °C 6.2 °C 1004.3 hPa North 22.2 km/h 11.6 km/h 92 % 0 mm
23:29 7.4 °C 6.2 °C 1004.3 hPa North 18.5 km/h 14.5 km/h 92 % 0 mm
23:34 7.4 °C 6.2 °C 1004.3 hPa North 18.5 km/h 11.6 km/h 92 % 0 mm
23:39 7.4 °C 6.2 °C 1004.3 hPa NNW 18.5 km/h 11.3 km/h 92 % 0 mm
23:44 7.5 °C 6.3 °C 1004.6 hPa North 22.2 km/h 11.1 km/h 92 % 0 mm
23:49 7.5 °C 6.3 °C 1004.3 hPa NNW 16.7 km/h 12.9 km/h 92 % 0 mm
23:54 7.5 °C 6.3 °C 1004.6 hPa North 20.9 km/h 11.9 km/h 92 % 0 mm
23:59 7.5 °C 6.3 °C 1004.3 hPa NNW 14.8 km/h 12.6 km/h 92 % 0 mm
Ararat Weather
Compliments of Weather Underground - 2.25 mb
Click here to send mail.


ABOUT

Live weather data from Ararat, Victoria, Australia, 3377
Data uploaded from Cumulus every 5 minutes to Weather Underground.
This site then downloads the raw data for formatting and display.
Metric and imperial data can be displayed. Graphs and historical data available.
Includes Sun and Moon times and rain image live from BOM.

Check out Ararat Weather on Facebook, Twitter and Google +

Help support ongoing costs by checking out the ads





Follow @AraratWeather